Weather Roundup
Issued by NWS Springfield, MO

Home | Current Version | Previous Version | Text Only | Print | Product List | Glossary On
Versions: 1 2 3 4 5 6 7 8 9 10 11 12 13 14 15 16 17 18 19 20 21 22 23 24 25 26 27 28 29 30 31 32 33 34 35 36 37 38 39 40 41 42 43 44 45 46 47 48 49 50
000
NZUS99 KSGF 012207
HRRSGF

HOURLY WEATHER
NATIONAL WEATHER SERVICE SPRINGFIELD MO
400 PM CST SUN FEB 01 2015

......SGF CWA......

CITY           SKY/WX    TMP DP  RH WIND       PRES   REMARKS
SPRINGFIELD    CLOUDY    31  26  82 W24G35    29.86R WCI  17
JOPLIN         CLOUDY    27  21  78 NW26G35   29.99R WCI  12
WEST PLAINS    CLOUDY    37  33  85 W21G33    29.77R WCI  26
ROLLA          CLOUDY    35  32  88 W17G25    29.71R WCI  25
OSAGE BEACH    CLOUDY    36  30  80 W12G23    29.79R WCI  27
BRANSON        CLOUDY    32  28  86 W21G31    29.87R WCI  20

......SURROUNDING SGF CWA......

CITY           SKY/WX    TMP DP  RH WIND       PRES   REMARKS
CHANUTE        CLOUDY    23  14  68 NW24G38   30.05R WCI   7
PARSONS        CLOUDY    25  16  68 NW25G33   30.07R WCI   9
COFFEYVILLE    CLOUDY    26  16  65 NW21G31   30.08R WCI  12
EMPORIA        LGT SNOW  17  11  77 NW25G36   30.10R WCI  -1
GROVE OK       CLOUDY    32  23  69 NW21G29   30.04R WCI  20
ROGERS AR      CLOUDY    28  25  88 W21G31    29.95R WCI  15
SILOAM SPRINGS CLOUDY    28  19  69 NW18G29   30.00R WCI  16
HARRISON AR    CLOUDY    33  30  88 NW14G32   29.85R WCI  23
NEAR YELLVILLE CLOUDY    39  30  70 W20G31    29.84R WCI  30

......KANSAS AND MISSOURI......

CITY           SKY/WX    TMP DP  RH WIND       PRES   REMARKS
KANSAS CTY INT LGT SNOW  22  18  85 NW21G33   29.96R FOG     WCI   6
DOWNTOWN KC    FLURRIES  25  18  74 NW18G31   29.97R WCI  11
COLUMBIA       LGT SNOW  34  33  96 NW14      29.74R FOG     WCI  25
SEDALIA        CLOUDY    31  27  85 NW21G32   29.84R WCI  18
ST JOSEPH      LGT SNOW  20  17  88 N24       30.02R VSB 1   WCI   3
ST LOUIS       NOT AVBL
SPIRIT OF STL  LGT RAIN  39  36  89 NW13      29.67R FOG     WCI  31
KIRKSVILLE     LGT SNOW  24  21  88 N23G29    29.83R FOG     WCI   9
WICHITA        FLURRIES  23  11  60 NW28G37   30.15R WCI   6
TOPEKA         LGT SNOW  19  11  70 NW22G33   30.10R WCI   2
OLATHE         LGT SNOW  22  18  85 NW24G39   29.96R FOG     WCI   5

......TENNESSEE......

CITY           SKY/WX    TMP DP  RH WIND       PRES   REMARKS
MEMPHIS        LGT RAIN  53  49  86 W12G20    29.73R
NASHVILLE      LGT RAIN  54  52  93 S21       29.68F

......ARKANSAS.......

CITY           SKY/WX    TMP DP  RH WIND       PRES   REMARKS
FAYETTEVILLE   CLOUDY    30  26  85 NW18G28   29.97R WCI  18
FT SMITH       CLOUDY    40  28  62 NW18G26   29.99R WCI  31
LITTLE ROCK    CLOUDY    49  38  65 W21G30    29.85R

......OKLAHOMA.......

CITY           SKY/WX    TMP DP  RH WIND       PRES   REMARKS
TULSA          CLOUDY    32  19  58 NW25G32   30.08R WCI  19
PONCA CITY     CLOUDY    29  16  58 NW23G36   30.15R WCI  15
MCALESTER      LGT RAIN  39  27  62 NW17G28   30.06R WCI  30
OKLAHOMA CITY  MOSUNNY   39  21  48 N28G38    30.11R WCI  28

......IOWA............

CITY           SKY/WX    TMP DP  RH WIND       PRES   REMARKS
DES MOINES     SNOW      19  13  77 N23G37    30.01R VSB 1/2 WCI   2
QUAD CITIES    SNOW      21  17  84 N15G24    29.81R VSB 1/2 WCI   8

......ILLINOIS........

CITY           SKY/WX    TMP DP  RH WIND       PRES   REMARKS
QUINCY         LGT SNOW  29  25  85 N23G33    29.71R FOG     WCI  15
CHICAGO        SNOW      22  20  92 NE24G35   29.77R VSB 1/4 WCI   5



USA.gov is the U.S. government's official web portal to all federal, state and local government web resources and services.